(136199) Eris
ephemeris date magn radius delta ra dec elong phase
Today7 Jul 202518.795.568 AU95.746 AU01h49m-00°06'79.6°0.6°
Opposition17 Oct 202518.695.544 AU94.565 AU01h47m-00°22'169.3°0.1°
(136199) Eris - 2025-07-07
astro.vanbuitenen.nl


 
-1 year
-1 month
-1 day
Now
+1 day
+1 month
+1 year

The interactive orbit chart above shows the body's path through the solar system and its position at the given date. Green and blue lines are shown perpendicular to the ecliptic plane: Green if the path is above the ecliptic plane, blue if it is below. (Left-click and drag to rotate the view; Right-click and drag to move the view; Use scroll wheel to zoom in our out.)

The orbital elements of Eris are:

            e (Eccentricity)                : 0.4356752
            a (Semimajor axis)              : 68.0516928
            i (Inclination)                 : 43.82171
            Ω (Longitude of ascending node) : 36.04599
            ω (Argument of perihelion)      : 150.70961
            M (Mean anomaly)                : 211.04259
            Epoch                           : 2025 May 05

            L (Longitude of perihelion)     : 14.01150
            B (Latitude of perihelion)      : 19.80106
            P (Orbital period in years)     : 561.38            
        

The light curve chart below shows the estimated development of the minor planet's magnitude.


The all-sky chart below shows the path of the minor planet over the same period as the light curve. The current position is marked yellow.





The following chart shows the path of the minor planet in the next few days. The field of view is optimized for (~10x50) binoculars and finderscopes. A more printer-friendly version of the same chart can be found below.




Ephemerides:
Date       Time       RA (2000)    DEC (2000)    delta   radius  elong  phase   PA    magn
2025-07-07 00:00 UT   01 49 25.2   +00 06 31    95.746   95.568   79.6    0.6   247   18.7 
2025-07-07 06:30 UT   01 49 25.4   +00 06 31    95.742   95.568   79.9    0.6   247   18.7 
2025-07-08 00:00 UT   01 49 25.9   +00 06 32    95.730   95.568   80.6    0.6   247   18.7 
2025-07-09 00:00 UT   01 49 26.5   +00 06 34    95.713   95.568   81.5    0.6   247   18.7 
2025-07-10 00:00 UT   01 49 27.0   +00 06 36    95.696   95.568   82.4    0.6   248   18.7 
2025-07-11 00:00 UT   01 49 27.6   +00 06 38    95.680   95.567   83.4    0.6   248   18.7 
2025-07-12 00:00 UT   01 49 28.0   +00 06 40    95.663   95.567   84.3    0.6   248   18.7 
2025-07-13 00:00 UT   01 49 28.5   +00 06 42    95.646   95.567   85.2    0.6   248   18.7 
2025-07-14 00:00 UT   01 49 28.9   +00 06 45    95.629   95.567   86.2    0.6   248   18.7 
2025-07-15 00:00 UT   01 49 29.3   +00 06 48    95.612   95.567   87.1    0.6   248   18.7 
2025-07-16 00:00 UT   01 49 29.6   +00 06 51    95.596   95.566   88.0    0.6   249   18.7 
2025-07-17 00:00 UT   01 49 29.9   +00 06 54    95.579   95.566   89.0    0.6   249   18.7 
2025-07-18 00:00 UT   01 49 30.2   +00 06 58    95.562   95.566   89.9    0.6   249   18.7 
2025-07-19 00:00 UT   01 49 30.4   +00 07 02    95.545   95.566   90.9    0.6   249   18.7 
2025-07-20 00:00 UT   01 49 30.6   +00 07 06    95.528   95.565   91.8    0.6   249   18.7 
2025-07-21 00:00 UT   01 49 30.7   +00 07 10    95.511   95.565   92.7    0.6   249   18.7 
2025-07-22 00:00 UT   01 49 30.8   +00 07 15    95.494   95.565   93.7    0.6   250   18.7 
2025-07-23 00:00 UT   01 49 30.9   +00 07 20    95.478   95.565   94.6    0.6   250   18.7 
2025-07-24 00:00 UT   01 49 30.9   +00 07 24    95.461   95.564   95.6    0.6   250   18.7 
2025-07-25 00:00 UT   01 49 30.9   +00 07 30    95.444   95.564   96.5    0.6   250   18.7 
2025-07-26 00:00 UT   01 49 30.9   +00 07 35    95.427   95.564   97.4    0.6   250   18.7 
2025-07-27 00:00 UT   01 49 30.8   +00 07 41    95.411   95.564   98.4    0.6   251   18.7 
2025-07-28 00:00 UT   01 49 30.7   +00 07 46    95.394   95.563   99.3    0.6   251   18.7 
2025-07-29 00:00 UT   01 49 30.5   +00 07 52    95.377   95.563  100.3    0.6   251   18.7 
2025-07-30 00:00 UT   01 49 30.3   +00 07 59    95.361   95.563  101.2    0.6   251   18.7 
2025-07-31 00:00 UT   01 49 30.1   +00 08 05    95.344   95.563  102.1    0.6   251   18.7 
2025-08-01 00:00 UT   01 49 29.8   +00 08 11    95.328   95.562  103.1    0.6   251   18.7 
2025-08-02 00:00 UT   01 49 29.5   +00 08 18    95.311   95.562  104.0    0.6   252   18.7 
2025-08-03 00:00 UT   01 49 29.1   +00 08 25    95.295   95.562  105.0    0.6   252   18.7 
2025-08-04 00:00 UT   01 49 28.7   +00 08 32    95.279   95.562  105.9    0.6   252   18.7 
2025-08-05 00:00 UT   01 49 28.3   +00 08 40    95.263   95.561  106.8    0.6   252   18.7 
2025-08-06 00:00 UT   01 49 27.8   +00 08 47    95.247   95.561  107.8    0.6   252   18.7 


    Terminology:
            
    delta:  distance between minor planet and earth in AU
    radius: distance between minor planet and sun in AU
    magn:   magnitude (brightness) estimate    
    ra:     right ascension in hours (24h = 360deg)
    dec:    declination in degrees
    elong:  elongation in degrees (angle sun-earth-minor planet)    
    phase:  phase angle in degrees (angle sun-minor planet-earth)        
    AU:     Astronomical Unit (mean distance between earth and sun: 149597870.7 km
    

Orbital elements provided by the MPC (Minor Planet Center).
Calculations by a modified version of AAPlus, a C# implementation of the AA+ project by PJ Naughter from the algorithms presented in the book "Astronomical Algorithms" by Jean Meeus.
NGC2000 dso catalog and star labels from VizieR as provided by the Strasbourg astronomical Data Center.
Tycho2 catalog from the ESO archive.